Location: Goudie Road
(49.9333°N, 119.0750°W)
Time: 18:22:55
(UTC-07:00)

Daily predictions for brighter satellites

Satellite Brightness Start Highest point End
(mag) Time Altitude Azimuth Time Altitude Azimuth Time Altitude Azimuth
Cosmos 2369 3.7 20:07:47 10° SSW 20:13:24 68° ESE 20:19:06 10° NNE
Cosmos 1626 Rocket 3.5 20:11:58 10° N 20:16:24 74° ENE 20:20:45 10° SSE
H-2A R/B 3.5 20:15:52 10° ESE 20:18:53 20° ENE 20:21:57 10° NNE
Tiangong 1 3.0 20:16:56 10° WSW 20:19:12 19° S 20:21:28 10° SE
Cosmos 1821 Rocket 4.3 20:15:28 10° SSW 20:21:33 72° WNW 20:27:40 10° N
FENGYUN 3A 3.8 20:18:28 10° SSE 20:23:49 85° WSW 20:29:14 10° NNW
Lacrosse 5 rocket 3.6 20:21:50 10° W 20:24:19 17° SW 20:26:45 10° S
Cosmos 1975 3.0 20:20:46 10° S 20:24:47 55° E 20:28:49 10° NNE
Cosmos 1605 Rocket 4.0 20:18:30 10° S 20:24:48 77° E 20:31:02 10° NNE
Cosmos 1656 3.9 20:19:28 10° S 20:24:50 50° ESE 20:30:10 10° NE
Cosmos 468 Rocket 4.4 20:20:47 10° S 20:25:28 37° ESE 20:30:12 10° NE
Cosmos 1455 Rocket 3.3 20:21:13 10° SSW 20:25:33 76° W 20:29:57 10° N
Cosmos 1602 Rocket 3.6 20:22:11 10° N 20:26:41 89° WSW 20:31:07 10° S
NOSS 7 (D) 4.4 20:25:07 10° SW 20:28:28 86° NW 20:32:01 10° NE
USA 215 3.9 20:23:17 10° E 20:29:33 50° N 20:35:49 10° WNW
Cosmos 2263 Rocket 3.7 20:25:26 10° N 20:29:45 22° NE 20:34:02 10° E
YAOGAN 11 4.4 20:27:06 10° SE 20:31:26 50° ENE 20:35:44 10° N
CZ-2D R/B 3.6 20:28:04 10° S 20:31:56 70° WSW 20:35:51 10° NNW
EO 1 Delta rocket 3.9 20:27:49 10° NNE 20:32:30 74° E 20:37:50 10° S
Cosmos 1500 3.5 20:29:08 10° SSE 20:32:42 42° E 20:36:18 10° NNE
Cosmos 1340 3.4 20:31:49 10° N 20:35:20 35° ENE 20:38:50 10° SE
Cosmos 2100 Rocket 4.4 20:29:47 10° SSE 20:35:38 43° E 20:41:27 10° NNE
Cosmos 2227 Rocket 3.8 20:30:36 10° NW 20:35:42 35° WSW 20:40:45 10° S
Cosmos 1814 Rocket 4.4 20:33:22 10° S 20:38:21 42° ESE 20:43:19 10° NE
Helios 1B rocket 4.1 20:37:30 10° N 20:41:22 40° WNW 20:45:13 10° SW
Cosmos 2322 Rocket 3.7 20:42:28 12° ESE 20:44:34 14° E 20:47:27 10° ENE
Cosmos 2061 Rocket 4.2 20:43:11 10° SSE 20:49:11 49° E 20:55:10 10° NNE
Cosmos 2297 Rocket 3.6 20:45:27 10° NW 20:50:36 37° WSW 20:55:43 10° S
Cosmos 1515 4.3 20:48:40 10° NNW 20:52:29 60° W 20:56:15 10° S
Iridium 4 Rocket 3.6 20:52:58 10° N 20:58:04 72° W 21:02:39 10° S
Meteor 1-21 4.3 20:52:58 10° N 20:58:44 65° ENE 21:04:31 10° SSE
SL-24 R/B - RUBIN 2 4.4 20:54:28 10° SW 21:00:33 84° SE 21:07:14 10° NE
Cosmos 405 Rocket 4.4 20:58:45 10° NNE 21:01:20 17° ENE 21:02:30 15° E
Cosmos 1459 Rocket 4.0 20:55:37 10° S 21:01:33 62° E 21:07:37 10° NNE
Cosmos 2227 4.2 20:56:02 10° NNW 21:01:50 84° ENE 21:06:52 14° SSE
Cosmos 2058 Rocket 4.1 20:59:39 16° SE 21:02:24 28° E 21:06:15 10° NNE
Cosmos 1939 Rocket 2.9 21:00:05 11° SSE 21:04:07 76° ENE 21:08:18 10° N
Cosmos 1606 Rocket 4.0 21:00:11 10° SSE 21:04:20 42° E 21:08:33 10° NNE
Lacrosse 5 3.2 21:03:14 10° WNW 21:07:45 33° SW 21:12:11 10° SSE
Cosmos 1937 Rocket 4.1 21:04:14 10° NNW 21:09:25 58° WSW 21:14:36 10° S
Envisat 3.0 21:06:51 11° SSE 21:11:50 82° ENE 21:16:57 10° NNW
Cosmos 1743 2.6 21:11:09 10° S 21:15:03 73° E 21:18:59 10° NNE
Cosmos 990 Rocket 4.4 21:13:13 10° NNW 21:18:26 64° WSW 21:23:19 12° S
CZ-4 SHROUD 4.2 21:19:08 28° E 21:19:39 29° ENE 21:22:23 10° N
SPOT 5 2.9 21:17:27 19° SSE 21:20:56 64° ENE 21:25:36 10° N
RESURS DK-1 4.1 21:23:16 10° NW 21:26:50 28° WSW 21:30:22 10° SSW
Cosmos 1726 Rocket 3.6 21:23:09 13° S 21:26:54 61° E 21:31:17 10° NNE
CZ-4 DEB 4.2 21:24:39 10° SSW 21:27:34 35° W 21:30:31 10° NNW
Cosmos 1697 Rocket 2.9 21:23:50 10° SSW 21:29:29 77° WNW 21:35:11 10° NNE
ERS-1 Rocket 3.7 21:29:10 10° S 21:34:03 52° W 21:38:59 10° NNW
ATLAS CENTAUR R/B 4.4 21:33:15 10° NW 21:36:11 16° NNW 21:39:03 10° NNE
Cosmos 1825 Rocket 4.4 21:32:47 10° NNW 21:37:04 50° W 21:41:14 10° SSW
H-2A R/B 3.0 21:37:08 25° E 21:38:46 30° ENE 21:43:01 10° N
Terra 3.1 21:38:09 22° E 21:39:29 25° ENE 21:43:21 10° N
Cosmos 1844 Rocket 4.5 21:37:02 10° N 21:41:06 20° NE 21:44:10 13° ENE
SL-08 R/B 4.4 21:35:13 10° S 21:41:25 73° E 21:47:33 10° NNE
ARGOS 3.3 21:39:15 29° SE 21:41:54 58° ENE 21:47:13 10° N
SL-16 R/B 2.7 21:39:36 26° SSE 21:41:55 37° ESE 21:47:05 10° NE
NOAA 11 4.3 21:40:38 29° SE 21:43:24 60° ENE 21:48:48 10° N
Cosmos 1802 Rocket 4.2 21:38:05 10° SSW 21:44:30 80° W 21:51:00 10° N
Cosmos 1842 3.4 21:41:57 10° NNW 21:45:52 73° W 21:47:42 30° S
Cosmos 1763 Rocket 3.3 21:42:32 10° SSW 21:47:38 89° ESE 21:52:44 10° NNE
Cosmos 1238 4.0 21:45:05 10° N 21:48:17 79° E 21:48:30 72° SE
Cosmos 1953 Rocket 4.3 21:44:27 10° NNW 21:48:48 52° W 21:52:11 16° SSW
Cosmos 2016 Rocket 4.0 21:45:28 10° S 21:51:36 82° W 21:57:54 10° N
MetOp-B 4.2 21:48:43 24° S 21:52:01 81° WSW 21:57:25 10° NNW
Cosmos 1707 3.9 21:49:07 10° N 21:52:29 28° ENE 21:52:29 28° ENE
Cosmos 1980 Rocket 2.3 21:47:50 10° SSW 21:53:33 80° WNW 21:59:17 10° NNE
Cosmos 2360 Rocket 3.8 21:56:06 18° ENE 21:56:06 18° ENE 21:58:29 10° NE
H-2A R/B 2.6 21:52:10 22° SSW 21:54:35 51° W 21:58:41 10° NNW
Cosmos 1666 2.7 21:55:18 31° SSW 21:57:00 81° W 22:00:51 10° N
Cosmos 1125 Rocket 3.7 21:52:41 10° NNW 21:57:53 69° WSW 22:00:24 31° S
SPOT 1/Viking Rocket 3.5 21:55:41 34° SSE 21:58:02 82° ENE 22:03:17 10° NNW
Cosmos 2228 2.9 21:56:52 43° SSE 21:58:06 68° E 22:02:24 10° NNE
SWAS 4.3 21:56:33 20° SSW 21:59:28 69° ESE 22:03:49 10° NE
Cosmos 2098 Rocket 3.8 21:54:03 10° S 22:00:41 90° W 22:05:59 10° N
YAOGAN 6 3.1 22:02:35 39° SSW 22:03:41 57° W 22:07:24 10° NNW
USA 245 4.5 22:00:15 27° SSE 22:03:55 87° WSW 22:10:12 10° NNW
SL-19 R/B 4.1 22:00:35 10° NNE 22:06:02 61° ESE 22:08:02 37° SSE
Nimbus 7 Rocket 4.5 22:00:28 10° NNE 22:06:35 84° WNW 22:12:39 10° SSW
Cosmos 841 Rocket 3.8 22:06:58 10° SSW 22:12:11 68° WNW 22:17:24 10° NNE
USA 215 3.3 22:08:55 32° ESE 22:12:14 80° NNE 22:18:48 10° WNW
ASTEX 1 3.9 22:09:30 10° N 22:14:28 61° W 22:18:01 19° SSW
Cosmos 2263 Rocket 2.1 22:08:52 10° NNW 22:14:29 89° ENE 22:16:14 46° SSE
deb Chang Zheng 4 4.2 22:12:23 10° N 22:16:46 56° WNW 22:20:26 14° SW
SL-08 RB Rocket 3.7 22:16:15 52° SSE 22:17:23 88° WSW 22:22:03 10° NNW
Cosmos 540 Rocket 3.4 22:18:56 51° SSE 22:19:56 63° ESE 22:25:02 10° NNE
GP-B 3.5 22:17:33 10° NNE 22:21:39 48° ENE 22:21:39 48° ENE
Okean 3 Rocket 3.9 22:21:08 10° N 22:25:20 49° ENE 22:25:20 49° ENE
Cosmos 2346 Rocket 4.4 22:19:24 10° N 22:25:41 87° E 22:27:53 43° SSE
Cosmos 1441 Rocket 4.0 22:23:02 10° N 22:26:14 41° NE 22:26:14 41° NE
Cosmos 2322 Rocket 2.0 22:24:08 23° SSW 22:27:42 81° ESE 22:33:22 10° NNE
Meteor 2-5 Rocket 3.7 22:25:10 10° NNW 22:31:09 89° E 22:32:49 50° SSE
Genesis I 3.3 22:28:32 10° NW 22:32:11 72° WNW 22:32:11 72° WNW
Cosmos 372 Rocket 4.4 22:27:46 10° NNW 22:32:48 56° WSW 22:34:07 43° SSW
Cosmos 405 Rocket 3.5 22:34:05 10° NNW 22:37:41 43° W 22:37:44 43° W
BREEZE-M DEB (TANK) 4.4 22:29:16 10° SW 22:37:46 43° S 22:37:46 43° S
Meteor 2-17 Rocket 4.4 22:36:22 33° SSW 22:39:15 81° W 22:45:21 10° N
Meteor 1-24 Rocket 3.9 22:35:48 10° N 22:41:51 68° ENE 22:42:56 56° SE
Cosmos 1076 Rocket 4.4 22:45:34 10° N 22:48:47 38° NE 22:48:47 38° NE
CARTOSAT-1 3.6 22:53:03 74° WNW 22:53:03 74° WNW 22:57:10 10° NNW
Cosmos 332 Rocket 4.1 22:54:16 42° SW 22:55:46 64° WNW 23:00:41 10° NNE
Lacrosse 4 Rocket 3.9 23:00:52 14° NE 23:00:52 14° NE 23:01:36 10° NE
CZ-4B R/B 3.7 22:53:14 10° N 22:57:58 63° WNW 22:58:57 50° WSW
Cosmos 371 Rocket 3.2 22:58:17 83° WNW 22:58:17 83° WNW 23:03:09 10° NNE
COSMOS 2428 4.2 23:00:49 23° ENE 23:00:49 23° ENE 23:03:32 10° NE
DMSP B5D2-2 4.0 22:54:18 10° NNE 22:59:27 70° E 22:59:27 70° E
Landsat 7 4.3 23:01:17 48° WSW 23:01:41 50° W 23:06:20 10° NNW
CZ-4C R/B 4.2 23:06:40 49° W 23:06:40 49° W 23:10:44 10° NNW
Cosmos 2278 Rocket 3.2 23:01:32 10° NNW 23:06:43 35° NE 23:07:42 33° ENE
UNK 4.3 22:49:50 10° W 23:07:36 87° S 23:09:18 49° E
CRYOSAT 2 4.5 23:04:38 10° N 23:09:00 66° NE 23:09:00 66° NE
CZ-4B R/B 4.4 23:11:41 11° NE 23:11:41 11° NE 23:12:08 10° NNE
IGS 5A 4.2 23:12:24 49° WNW 23:12:24 49° WNW 23:15:50 10° NNW
Cosmos 1072 Rocket 4.4 23:11:28 65° S 23:12:28 90° E 23:18:42 10° N
Cosmos 1766 Rocket 4.3 23:09:00 10° N 23:12:32 50° NNE 23:12:32 50° NNE
Cosmos 1812 Rocket 4.4 23:15:30 45° WNW 23:15:33 45° WNW 23:19:45 10° N
Terra 2.4 23:17:02 50° W 23:17:02 50° W 23:21:37 10° NNW
ATLAS CENTAUR R/B 4.4 23:14:34 10° NNW 23:17:07 14° N 23:19:36 10° NE
H-2A R/B 2.7 23:17:46 42° WSW 23:18:04 42° W 23:22:46 10° NNW
ATLAS 3B R/B 4.4 23:25:37 20° E 23:25:37 20° E 23:28:45 10° ENE
Cosmos 1844 Rocket 2.6 23:20:19 10° NNW 23:25:49 78° NE 23:25:49 78° NE
SL-16 R/B 3.1 23:21:21 14° WSW 23:25:56 45° NW 23:31:25 10° NNE
Cosmos 1538 Rocket 4.1 23:28:44 79° NNW 23:28:44 79° NNW 23:33:57 10° NNE
Cosmos 1818 4.5 23:27:00 10° NNW 23:32:11 40° NE 23:32:56 38° ENE
Meteor 1-21 Rocket 4.3 23:26:41 10° N 23:32:22 69° ENE 23:32:22 69° ENE
Cosmos 1844 3.7 23:27:30 10° NNW 23:33:06 70° NE 23:33:06 70° NE
Cosmos 2056 Rocket 4.4 23:28:44 10° NNW 23:33:39 41° NE 23:33:39 41° NE
Meteor 1-22 Rocket 4.2 23:37:40 76° W 23:37:46 77° WNW 23:43:24 10° N
Cosmos 2360 Rocket 2.2 23:37:50 78° WNW 23:37:52 78° WNW 23:43:35 10° NNE
Cosmos 1371 Rocket 4.5 23:35:15 10° NNW 23:39:50 54° NE 23:39:50 54° NE
Cosmos 2034 Rocket 3.9 23:41:14 77° SW 23:41:37 81° W 23:47:52 10° N
Cosmos 773 Rocket 4.4 23:42:54 58° NNE 23:42:54 58° NNE 23:47:09 10° NNE
In-Cosmos 22 4.3 23:42:32 10° NNW 23:47:40 71° WNW 23:47:40 71° WNW
Cosmos 1092 Rocket 3.9 23:42:52 10° N 23:49:15 84° E 23:49:20 84° E
GEOS 3 Rocket 3.9 23:48:26 10° NE 23:52:41 61° NNE 23:52:41 61° NNE
